Time,TemperatureF,DewpointF,PressureIn,WindDirection,WindDirectionDegrees,WindSpeedMPH,WindSpeedGustMPH,Humidity,HourlyPrecipIn,Conditions,Clouds,dailyrainin,SoftwareType,DateUTC
2013-05-02 00:01:00,44.0,-4.0,-100.00,SSW,196,2.0,3.0,13,-99.99,,,-99.99,,2013-05-02 07:01:00,
2013-05-02 00:21:00,43.0,-4.0,-100.00,South,179,2.0,4.0,13,-99.99,,,-99.99,,2013-05-02 07:21:00,
2013-05-02 00:31:00,43.0,-4.0,-100.00,South,179,2.0,4.0,13,-99.99,,,-99.99,,2013-05-02 07:31:00,
2013-05-02 00:52:00,42.0,-5.0,-100.00,SSE,161,1.0,4.0,13,-99.99,,,-99.99,,2013-05-02 07:52:00,
2013-05-02 01:02:00,43.0,-4.0,-100.00,SE,131,2.0,5.0,13,-99.99,,,-99.99,,2013-05-02 08:02:00,
2013-05-02 01:21:00,42.0,-4.0,-100.00,SSE,147,1.0,7.0,14,-99.99,,,-99.99,,2013-05-02 08:21:00,
2013-05-02 01:32:00,43.0,-4.0,-100.00,ESE,114,1.0,7.0,13,-99.99,,,-99.99,,2013-05-02 08:32:00,
2013-05-02 01:42:00,43.0,-4.0,-100.00,ESE,114,1.0,7.0,13,-99.99,,,-99.99,,2013-05-02 08:42:00,
2013-05-02 01:52:00,42.0,-2.0,-100.00,East,83,1.0,5.0,15,-99.99,,,-99.99,,2013-05-02 08:52:00,
2013-05-02 02:02:00,42.0,-2.0,-100.00,ESE,119,1.0,7.0,15,-99.99,,,-99.99,,2013-05-02 09:02:00,
2013-05-02 02:11:00,42.0,-2.0,-100.00,ESE,119,1.0,7.0,15,-99.99,,,-99.99,,2013-05-02 09:11:00,
2013-05-02 02:21:00,41.0,-3.0,-100.00,South,178,1.0,4.0,15,-99.99,,,-99.99,,2013-05-02 09:21:00,
2013-05-02 02:32:00,42.0,-1.0,-100.00,South,181,1.0,4.0,16,-99.99,,,-99.99,,2013-05-02 09:32:00,
2013-05-02 02:42:00,42.0,-1.0,-100.00,South,181,1.0,4.0,16,-99.99,,,-99.99,,2013-05-02 09:42:00,
2013-05-02 02:52:00,40.0,-3.0,-100.00,SSE,157,1.0,3.0,16,-99.99,,,-99.99,,2013-05-02 09:52:00,
2013-05-02 03:02:00,41.0,-2.0,-100.00,South,188,1.0,3.0,16,-99.99,,,-99.99,,2013-05-02 10:02:00,
2013-05-02 03:22:00,40.0,-1.0,-100.00,SSE,164,1.0,3.0,17,-99.99,,,-99.99,,2013-05-02 10:22:00,
2013-05-02 03:32:00,40.0,-1.0,-100.00,SSE,158,1.0,3.0,17,-99.99,,,-99.99,,2013-05-02 10:32:00,
2013-05-02 03:52:00,40.0,0.0,-100.00,SSE,161,1.0,3.0,18,-99.99,,,-99.99,,2013-05-02 10:52:00,
2013-05-02 04:02:00,40.0,-1.0,-100.00,SSE,165,1.0,3.0,17,-99.99,,,-99.99,,2013-05-02 11:02:00,
2013-05-02 04:11:00,41.0,1.0,-100.00,SE,136,1.0,4.0,18,-99.99,,,-99.99,,2013-05-02 11:11:00,
2013-05-02 04:21:00,41.0,-1.0,-100.00,SE,143,1.0,4.0,17,-99.99,,,-99.99,,2013-05-02 11:21:00,
2013-05-02 04:32:00,42.0,-2.0,-100.00,ESE,107,1.0,4.0,15,-99.99,,,-99.99,,2013-05-02 11:32:00,
2013-05-02 04:42:00,41.0,-2.0,-100.00,SE,133,1.0,4.0,16,-99.99,,,-99.99,,2013-05-02 11:42:00,
2013-05-02 04:52:00,41.0,-3.0,-100.00,SE,126,1.0,4.0,15,-99.99,,,-99.99,,2013-05-02 11:52:00,
2013-05-02 05:01:00,42.0,3.0,-100.00,East,79,1.0,6.0,19,-99.99,,,-99.99,,2013-05-02 12:01:00,
2013-05-02 05:11:00,40.0,1.0,-100.00,SE,141,1.0,4.0,19,-99.99,,,-99.99,,2013-05-02 12:11:00,
2013-05-02 05:21:00,40.0,0.0,-100.00,SSE,161,2.0,4.0,18,-99.99,,,-99.99,,2013-05-02 12:21:00,
2013-05-02 05:32:00,40.0,0.0,-100.00,SSE,161,2.0,4.0,18,-99.99,,,-99.99,,2013-05-02 12:32:00,
2013-05-02 05:42:00,40.0,0.0,-100.00,SSE,161,2.0,4.0,18,-99.99,,,-99.99,,2013-05-02 12:42:00,
2013-05-02 05:52:00,40.0,0.0,-100.00,SSE,157,1.0,4.0,18,-99.99,,,-99.99,,2013-05-02 12:52:00,
2013-05-02 06:01:00,40.0,0.0,-100.00,SSE,161,2.0,4.0,18,-99.99,,,-99.99,,2013-05-02 13:01:00,
2013-05-02 06:21:00,39.0,1.0,-100.00,SSE,160,1.0,3.0,20,-99.99,,,-99.99,,2013-05-02 13:21:00,
2013-05-02 06:31:00,39.0,3.0,-100.00,SE,145,1.0,4.0,22,-99.99,,,-99.99,,2013-05-02 13:31:00,
2013-05-02 06:42:00,39.0,3.0,-100.00,SE,145,1.0,4.0,22,-99.99,,,-99.99,,2013-05-02 13:42:00,
2013-05-02 06:52:00,39.0,2.0,-100.00,SSE,164,1.0,2.0,21,-99.99,,,-99.99,,2013-05-02 13:52:00,
2013-05-02 07:02:00,37.0,8.0,-100.00,South,169,0.0,3.0,30,-99.99,,,-99.99,,2013-05-02 14:02:00,
2013-05-02 07:11:00,37.0,8.0,-100.00,South,169,0.0,3.0,30,-99.99,,,-99.99,,2013-05-02 14:11:00,
2013-05-02 07:21:00,37.0,11.0,-100.00,South,174,0.0,2.0,33,-99.99,,,-99.99,,2013-05-02 14:21:00,
2013-05-02 07:31:00,36.0,13.0,-100.00,South,172,0.0,2.0,38,-99.99,,,-99.99,,2013-05-02 14:31:00,
2013-05-02 07:42:00,36.0,13.0,-100.00,South,172,0.0,2.0,38,-99.99,,,-99.99,,2013-05-02 14:42:00,
2013-05-02 07:52:00,36.0,13.0,-100.00,South,172,0.0,2.0,38,-99.99,,,-99.99,,2013-05-02 14:52:00,
2013-05-02 08:02:00,38.0,18.0,-100.00,SE,137,1.0,4.0,43,-99.99,,,-99.99,,2013-05-02 15:02:00,
2013-05-02 08:21:00,40.0,21.0,-100.00,WNW,291,1.0,4.0,46,-99.99,,,-99.99,,2013-05-02 15:21:00,
2013-05-02 08:32:00,40.0,21.0,-100.00,WNW,291,1.0,4.0,46,-99.99,,,-99.99,,2013-05-02 15:32:00,
2013-05-02 08:43:00,40.0,21.0,-100.00,WNW,291,1.0,4.0,46,-99.99,,,-99.99,,2013-05-02 15:43:00,
2013-05-02 09:02:00,44.0,25.0,-100.00,NNE,24,2.0,5.0,46,-99.99,,,-99.99,,2013-05-02 16:02:00,
2013-05-02 09:13:00,44.0,22.0,-100.00,NNW,332,1.0,4.0,41,-99.99,,,-99.99,,2013-05-02 16:13:00,
2013-05-02 09:32:00,45.0,22.0,-100.00,NNW,339,1.0,4.0,40,-99.99,,,-99.99,,2013-05-02 16:32:00,
2013-05-02 09:52:00,45.0,19.0,-100.00,WNW,294,1.0,4.0,35,-99.99,,,-99.99,,2013-05-02 16:52:00,
2013-05-02 10:02:00,45.0,16.0,-100.00,NW,309,1.0,5.0,31,-99.99,,,-99.99,,2013-05-02 17:02:00,
2013-05-02 10:12:00,45.0,16.0,-100.00,NW,309,1.0,5.0,31,-99.99,,,-99.99,,2013-05-02 17:12:00,
2013-05-02 10:22:00,46.0,16.0,-100.00,NW,323,2.0,6.0,29,-99.99,,,-99.99,,2013-05-02 17:22:00,
2013-05-02 10:31:00,47.0,14.0,-100.00,NNE,13,2.0,4.0,26,-99.99,,,-99.99,,2013-05-02 17:31:00,
2013-05-02 10:42:00,47.0,14.0,-100.00,NNE,13,2.0,4.0,26,-99.99,,,-99.99,,2013-05-02 17:42:00,
2013-05-02 10:51:00,46.0,25.0,-100.00,WNW,288,2.0,5.0,43,-99.99,,,-99.99,,2013-05-02 17:51:00,
2013-05-02 11:01:00,46.0,25.0,-100.00,WNW,288,2.0,5.0,43,-99.99,,,-99.99,,2013-05-02 18:01:00,
2013-05-02 11:31:00,48.0,22.0,-100.00,WNW,285,2.0,5.0,36,-99.99,,,-99.99,,2013-05-02 18:31:00,
2013-05-02 11:41:00,48.0,22.0,-100.00,WNW,285,2.0,5.0,36,-99.99,,,-99.99,,2013-05-02 18:41:00,
2013-05-02 11:51:00,50.0,22.0,-100.00,NNW,346,1.0,6.0,33,-99.99,,,-99.99,,2013-05-02 18:51:00,
2013-05-02 12:01:00,50.0,22.0,-100.00,NNW,346,1.0,6.0,33,-99.99,,,-99.99,,2013-05-02 19:01:00,
2013-05-02 12:11:00,51.0,23.0,-100.00,North,352,1.0,4.0,33,-99.99,,,-99.99,,2013-05-02 19:11:00,
2013-05-02 12:21:00,51.0,24.0,-100.00,WNW,296,2.0,5.0,34,-99.99,,,-99.99,,2013-05-02 19:21:00,
2013-05-02 12:31:00,53.0,25.0,-100.00,WNW,298,2.0,6.0,33,-99.99,,,-99.99,,2013-05-02 19:31:00,
2013-05-02 12:52:00,54.0,20.0,-100.00,NNW,347,1.0,4.0,26,-99.99,,,-99.99,,2013-05-02 19:52:00,
2013-05-02 13:02:00,55.0,23.0,-100.00,NNW,333,1.0,5.0,29,-99.99,,,-99.99,,2013-05-02 20:02:00,
2013-05-02 13:11:00,55.0,23.0,-100.00,NNW,333,1.0,5.0,29,-99.99,,,-99.99,,2013-05-02 20:11:00,
2013-05-02 13:22:00,54.0,24.0,-100.00,WNW,291,2.0,5.0,31,-99.99,,,-99.99,,2013-05-02 20:22:00,
2013-05-02 13:32:00,55.0,24.0,-100.00,West,267,2.0,5.0,30,-99.99,,,-99.99,,2013-05-02 20:32:00,
2013-05-02 13:41:00,55.0,24.0,-100.00,West,267,2.0,5.0,30,-99.99,,,-99.99,,2013-05-02 20:41:00,
2013-05-02 13:52:00,56.0,23.0,-100.00,West,268,2.0,7.0,28,-99.99,,,-99.99,,2013-05-02 20:52:00,
2013-05-02 14:01:00,56.0,24.0,-100.00,West,281,2.0,5.0,29,-99.99,,,-99.99,,2013-05-02 21:01:00,
2013-05-02 14:11:00,56.0,24.0,-100.00,West,281,2.0,5.0,29,-99.99,,,-99.99,,2013-05-02 21:11:00,
2013-05-02 14:21:00,55.0,21.0,-100.00,NW,304,2.0,6.0,26,-99.99,,,-99.99,,2013-05-02 21:21:00,
2013-05-02 14:33:00,57.0,14.0,-100.00,WNW,282,2.0,5.0,18,-99.99,,,-99.99,,2013-05-02 21:33:00,
2013-05-02 14:42:00,57.0,14.0,-100.00,WNW,282,2.0,5.0,18,-99.99,,,-99.99,,2013-05-02 21:42:00,
2013-05-02 14:53:00,58.0,9.0,-100.00,WNW,294,2.0,5.0,14,-99.99,,,-99.99,,2013-05-02 21:53:00,
2013-05-02 15:02:00,59.0,13.0,-100.00,WNW,301,2.0,5.0,16,-99.99,,,-99.99,,2013-05-02 22:02:00,
2013-05-02 15:12:00,59.0,13.0,-100.00,WNW,301,2.0,5.0,16,-99.99,,,-99.99,,2013-05-02 22:12:00,
2013-05-02 15:22:00,59.0,11.0,-100.00,West,272,3.0,8.0,15,-99.99,,,-99.99,,2013-05-02 22:22:00,
2013-05-02 15:32:00,60.0,11.0,-100.00,West,272,2.0,9.0,14,-99.99,,,-99.99,,2013-05-02 22:32:00,
2013-05-02 15:42:00,60.0,11.0,-100.00,West,272,2.0,9.0,14,-99.99,,,-99.99,,2013-05-02 22:42:00,
2013-05-02 15:52:00,60.0,11.0,-100.00,West,272,2.0,9.0,14,-99.99,,,-99.99,,2013-05-02 22:52:00,
2013-05-02 16:02:00,62.0,14.0,-100.00,NW,315,2.0,5.0,15,-99.99,,,-99.99,,2013-05-02 23:02:00,
2013-05-02 16:11:00,62.0,14.0,-100.00,NW,315,2.0,5.0,15,-99.99,,,-99.99,,2013-05-02 23:11:00,
2013-05-02 16:22:00,63.0,11.0,-100.00,NW,311,2.0,5.0,13,-99.99,,,-99.99,,2013-05-02 23:22:00,
2013-05-02 16:32:00,63.0,11.0,-100.00,NW,305,2.0,5.0,13,-99.99,,,-99.99,,2013-05-02 23:32:00,
2013-05-02 16:42:00,63.0,11.0,-100.00,NW,305,2.0,5.0,13,-99.99,,,-99.99,,2013-05-02 23:42:00,
2013-05-02 16:51:00,65.0,13.0,-100.00,NW,311,1.0,4.0,13,-99.99,,,-99.99,,2013-05-02 23:51:00,
2013-05-02 17:01:00,67.0,15.0,-100.00,WNW,302,1.0,3.0,13,-99.99,,,-99.99,,2013-05-03 00:01:00,
2013-05-02 17:11:00,67.0,15.0,-100.00,WNW,302,1.0,3.0,13,-99.99,,,-99.99,,2013-05-03 00:11:00,
2013-05-02 17:21:00,67.0,13.0,-100.00,NW,319,1.0,3.0,12,-99.99,,,-99.99,,2013-05-03 00:21:00,
2013-05-02 17:31:00,67.0,13.0,-100.00,NW,319,1.0,3.0,12,-99.99,,,-99.99,,2013-05-03 00:31:00,
2013-05-02 17:41:00,67.0,13.0,-100.00,NW,319,1.0,3.0,12,-99.99,,,-99.99,,2013-05-03 00:41:00,
2013-05-02 17:52:00,68.0,17.0,-100.00,NNW,335,1.0,7.0,14,-99.99,,,-99.99,,2013-05-03 00:52:00,
2013-05-02 18:01:00,69.0,18.0,-100.00,NW,326,0.0,3.0,14,-99.99,,,-99.99,,2013-05-03 01:01:00,
2013-05-02 18:11:00,69.0,18.0,-100.00,NW,326,0.0,3.0,14,-99.99,,,-99.99,,2013-05-03 01:11:00,
2013-05-02 18:21:00,68.0,15.0,-100.00,NNW,339,0.0,3.0,13,-99.99,,,-99.99,,2013-05-03 01:21:00,
2013-05-02 18:31:00,63.0,18.0,-100.00,WSW,258,1.0,5.0,17,-99.99,,,-99.99,,2013-05-03 01:31:00,
2013-05-02 18:42:00,63.0,18.0,-100.00,WSW,258,1.0,5.0,17,-99.99,,,-99.99,,2013-05-03 01:42:00,
2013-05-02 18:52:00,61.0,17.0,-100.00,SW,222,1.0,4.0,18,-99.99,,,-99.99,,2013-05-03 01:52:00,
2013-05-02 19:01:00,63.0,18.0,-100.00,SW,222,1.0,3.0,17,-99.99,,,-99.99,,2013-05-03 02:01:00,
2013-05-02 19:11:00,63.0,18.0,-100.00,SW,222,1.0,3.0,17,-99.99,,,-99.99,,2013-05-03 02:11:00,
2013-05-02 19:21:00,61.0,16.0,-100.00,South,189,1.0,2.0,17,-99.99,,,-99.99,,2013-05-03 02:21:00,
2013-05-02 19:31:00,59.0,18.0,-100.00,South,178,1.0,2.0,20,-99.99,,,-99.99,,2013-05-03 02:31:00,
2013-05-02 19:42:00,59.0,18.0,-100.00,South,178,1.0,2.0,20,-99.99,,,-99.99,,2013-05-03 02:42:00,
2013-05-02 19:52:00,57.0,14.0,-100.00,South,176,1.0,3.0,18,-99.99,,,-99.99,,2013-05-03 02:52:00,
2013-05-02 20:01:00,57.0,15.0,-100.00,South,174,2.0,3.0,19,-99.99,,,-99.99,,2013-05-03 03:01:00,
2013-05-02 20:21:00,58.0,20.0,-100.00,SSE,164,2.0,3.0,23,-99.99,,,-99.99,,2013-05-03 03:21:00,
2013-05-02 20:33:00,58.0,20.0,-100.00,SSE,164,2.0,3.0,23,-99.99,,,-99.99,,2013-05-03 03:33:00,
2013-05-02 20:42:00,58.0,20.0,-100.00,SSE,164,2.0,3.0,23,-99.99,,,-99.99,,2013-05-03 03:42:00,
2013-05-02 21:02:00,56.0,29.0,-100.00,SSE,164,1.0,2.0,36,-99.99,,,-99.99,,2013-05-03 04:02:00,
2013-05-02 21:12:00,56.0,29.0,-100.00,SSE,164,1.0,2.0,36,-99.99,,,-99.99,,2013-05-03 04:12:00,
2013-05-02 21:22:00,55.0,31.0,-100.00,SSE,168,2.0,3.0,39,-99.99,,,-99.99,,2013-05-03 04:22:00,
2013-05-02 21:32:00,55.0,31.0,-100.00,SSE,165,1.0,2.0,40,-99.99,,,-99.99,,2013-05-03 04:32:00,
2013-05-02 21:42:00,55.0,31.0,-100.00,South,171,1.0,2.0,40,-99.99,,,-99.99,,2013-05-03 04:42:00,
2013-05-02 21:52:00,54.0,31.0,-100.00,SSE,165,1.0,2.0,40,-99.99,,,-99.99,,2013-05-03 04:52:00,
2013-05-02 22:02:00,54.0,31.0,-100.00,SSE,155,1.0,2.0,42,-99.99,,,-99.99,,2013-05-03 05:02:00,
2013-05-02 22:11:00,54.0,31.0,-100.00,SSE,155,1.0,2.0,42,-99.99,,,-99.99,,2013-05-03 05:11:00,
2013-05-02 22:21:00,52.0,32.0,-100.00,South,174,1.0,3.0,46,-99.99,,,-99.99,,2013-05-03 05:21:00,
2013-05-02 22:32:00,51.0,30.0,-100.00,ESE,109,0.0,1.0,45,-99.99,,,-99.99,,2013-05-03 05:32:00,
2013-05-02 22:42:00,51.0,30.0,-100.00,ESE,109,0.0,1.0,45,-99.99,,,-99.99,,2013-05-03 05:42:00,
2013-05-02 22:52:00,51.0,31.0,-100.00,SSE,164,1.0,2.0,47,-99.99,,,-99.99,,2013-05-03 05:52:00,
2013-05-02 23:01:00,51.0,32.0,-100.00,SSE,147,0.0,2.0,48,-99.99,,,-99.99,,2013-05-03 06:01:00,
2013-05-02 23:11:00,51.0,32.0,-100.00,SSE,147,0.0,2.0,48,-99.99,,,-99.99,,2013-05-03 06:11:00,
2013-05-02 23:21:00,51.0,32.0,-100.00,SSE,147,0.0,2.0,48,-99.99,,,-99.99,,2013-05-03 06:21:00,
2013-05-02 23:32:00,50.0,32.0,-100.00,SSE,168,1.0,2.0,50,-99.99,,,-99.99,,2013-05-03 06:32:00,
2013-05-02 23:42:00,50.0,32.0,-100.00,SSE,168,1.0,2.0,50,-99.99,,,-99.99,,2013-05-03 06:42:00,
2013-05-02 23:52:00,49.0,32.0,-100.00,SSE,155,0.0,2.0,51,-99.99,,,-99.99,,2013-05-03 06:52:00,